Location: Fort Wayne
(41.1310°N, 85.1290°W)
Time: 09:03:46
(UTC-04:00)

Gbstr 26 Del rocket - Visible Passes

Search period start: 04 May 2015 00:00
Search period end: 14 May 2015 00:00
Orbit: 494 x 1272 km, 51.8° (Epoch: 03 May)

Date Brightness Start Highest point End Pass type
(mag) Time Alt. Az. Time Alt. Az. Time Alt. Az.
04 May 5.7 01:23:55 10° WNW 01:30:55 38° N 01:38:27 10° ENE visible
04 May 5.4 03:12:17 10° NW 03:20:01 50° NNE 03:27:51 10° E visible
04 May 4.5 05:00:02 10° NW 05:08:15 77° SW 05:15:58 10° SE visible
04 May 4.1 21:44:35 10° SW 21:50:49 67° SE 21:58:23 10° ENE visible
04 May 5.2 23:31:59 10° W 23:38:43 50° NNW 23:46:27 10° NE visible
05 May 5.7 01:20:45 10° WNW 01:27:45 38° N 01:35:16 10° ENE visible
05 May 5.2 03:08:55 10° NW 03:16:46 54° NNE 03:24:41 10° E visible
05 May 4.5 04:56:41 10° WNW 05:04:47 66° SW 05:12:26 10° SE visible
05 May 4.1 21:41:05 10° SW 21:47:22 80° SE 21:55:00 10° NE visible
05 May 5.3 23:28:49 10° W 23:35:29 46° NNW 23:43:06 10° NE visible
06 May 5.7 01:17:32 10° WNW 01:24:34 38° N 01:32:07 10° ENE visible
06 May 5.0 03:05:34 10° NW 03:13:29 60° NNE 03:21:28 10° ESE visible
06 May 4.6 04:53:20 10° WNW 05:01:17 56° SW 05:08:49 10° SSE visible
06 May 4.2 21:37:40 10° SW 21:43:57 88° NW 21:51:37 10° NE visible
06 May 5.5 23:25:40 10° W 23:32:16 42° NNW 23:39:47 10° NE visible
07 May 5.7 01:14:19 10° WNW 01:21:23 39° N 01:28:58 10° ENE visible
07 May 4.8 03:02:10 10° NW 03:10:10 67° NNE 03:18:13 10° ESE visible
07 May 4.7 04:50:01 10° WNW 04:57:46 47° SW 05:05:06 10° SSE visible
07 May 4.4 21:34:19 10° WSW 21:40:34 76° NNW 21:48:12 10° NE visible
07 May 5.6 23:22:32 10° W 23:29:03 40° N 23:36:29 10° ENE visible
08 May 5.6 01:11:03 10° WNW 01:18:10 41° NNE 01:25:50 10° E visible
08 May 4.6 02:58:47 10° NW 03:06:49 75° NNE 03:14:55 10° ESE visible
08 May 4.9 04:46:46 10° WNW 04:54:13 39° SW 05:01:17 10° SSE visible
08 May 4.6 21:31:00 10° WSW 21:37:14 66° NNW 21:44:47 10° NE visible
08 May 5.7 23:19:23 10° WNW 23:25:52 38° N 23:33:12 10° ENE visible
09 May 5.5 01:07:45 10° NW 01:14:58 43° NNE 01:22:42 10° E visible
09 May 4.5 02:55:23 10° NW 03:03:26 85° NE 03:11:33 10° SE visible
09 May 5.1 04:43:34 10° WNW 04:50:38 32° SW 04:57:19 10° S visible
09 May 4.9 21:27:45 10° WSW 21:33:55 58° NNW 21:41:23 10° NE visible
09 May 5.7 23:16:14 10° WNW 23:22:41 37° N 23:29:58 10° ENE visible
10 May 5.4 01:04:26 10° NW 01:11:43 46° NNE 01:19:33 10° E visible
10 May 4.4 02:51:59 10° NW 03:00:01 85° SW 03:08:07 10° SE visible
10 May 5.3 04:40:29 10° WNW 04:47:02 27° SW 04:53:13 10° S visible
10 May 5.1 21:24:32 10° W 21:30:38 51° NNW 21:37:59 10° NE visible
10 May 5.7 23:13:03 10° WNW 23:19:29 36° N 23:26:45 10° ENE visible
11 May 5.2 01:01:05 10° NW 01:08:27 50° NNE 01:16:23 10° E visible
11 May 4.4 02:48:36 10° WNW 02:56:34 74° SW 02:59:40 42° SSE visible
11 May 5.6 04:37:31 10° WNW 04:42:02 21° WSW 04:42:02 21° WSW visible
11 May 5.3 21:21:21 10° W 21:27:23 46° NNW 21:34:36 10° NE visible
11 May 5.7 23:09:51 10° WNW 23:16:18 36° N 23:23:34 10° ENE visible
12 May 5.0 00:57:42 10° NW 01:05:09 55° NNE 01:11:17 18° E visible
12 May 4.4 02:45:14 10° WNW 02:53:05 63° SW 02:53:46 61° SSW visible
12 May 6.1 04:34:47 10° W 04:36:15 13° W 04:36:15 13° W visible
12 May 5.4 21:18:11 10° W 21:24:08 42° NNW 21:31:14 10° NE visible
12 May 5.6 23:06:38 10° WNW 23:13:05 37° N 23:20:24 10° ENE visible
13 May 4.8 00:54:18 10° NW 01:01:50 61° NNE 01:06:22 28° E visible
13 May 4.6 02:41:53 10° WNW 02:48:54 52° WSW 02:48:54 52° WSW visible
13 May 5.5 21:15:02 10° W 21:20:55 39° NNW 21:27:53 10° NE visible
13 May 5.6 23:03:22 10° WNW 23:09:53 38° N 23:17:15 10° ENE visible
